Regional Weather Roundup
Issued by NWS

Home | Current Version | Previous Version | Text Only | Print | Product List | Glossary On
Versions: 1 2 3 4 5 6 7 8 9 10 11 12 13 14 15 16 17 18 19 20 21 22 23 24 25 26 27 28 29 30 31 32 33 34 35 36 37 38 39 40 41 42 43 44 45 46 47 48 49 50
000
ASUS44 KBMX 261310
RWRAL

ALABAMA REGIONAL WEATHER ROUNDUP
NATIONAL WEATHER SERVICE BIRMINGHAM AL
800 AM CDT FRI MAY 26 2017

NOTE: "FAIR" INDICATES FEW OR NO CLOUDS BELOW 12,000 FEET
WITH NO SIGNIFICANT WEATHER AND/OR OBSTRUCTIONS TO VISIBILITY.

THE REMARK "TC" DENOTES TEMPERATURE IN DEGREES CELSIUS.

ALZ001>011-014-016>018-020-261400-
NORTH ALABAMA

CITY           SKY/WX    TMP DP  RH WIND       PRES   REMARKS
MUSCLE SHOALS  SUNNY     64  56  75 SE5       30.00R
HUNTSVILLE     MOSUNNY   64  58  80 SE7       30.00R
DECATUR        MOSUNNY   64  58  80 SE5       30.00S
HALEYVILLE     FAIR      65  57  75 S7        30.03R
GADSDEN        SUNNY     60  56  86 CALM      30.04R
$$

ALZ012-013-022-023-030>036-040>044-261400-
WEST CENTRAL ALABAMA

CITY           SKY/WX    TMP DP  RH WIND       PRES   REMARKS
TUSCALOOSA     SUNNY     65  57  75 S6        30.01R
$$

ALZ015-024>027-033>036-040>044-261400-
CENTRAL ALABAMA

CITY           SKY/WX    TMP DP  RH WIND       PRES   REMARKS
BIRMINGHAM     MOSUNNY   68  53  58 S3        30.04R
MONTGOMERY     SUNNY     66  56  70 CALM      30.04R
SHELBY CO ARPT SUNNY     64  58  80 S3        30.03R
MAXWELL AFB    SUNNY     65  56  73 CALM      30.04R
GREENVILLE     FAIR      68  60  75 S5        30.03R
$$

ALZ019-021-028-029-037-038-045>048-261400-
EAST CENTRAL ALABAMA

CITY           SKY/WX    TMP DP  RH WIND       PRES   REMARKS
ANNISTON       SUNNY     59  55  87 E5        30.04R
ALEXANDER CITY SUNNY     61  56  84 CALM      30.05R
AUBURN         SUNNY     66  54  65 S6        30.07R
$$

ALZ051>064-261400-
SOUTHWEST ALABAMA

CITY           SKY/WX    TMP DP  RH WIND       PRES   REMARKS
MOBILE         MOSUNNY   74  63  68 S7        30.03R
BROOKLEY FIELD SUNNY     76  66  71 S5        30.03R
EVERGREEN      SUNNY     65  61  87 CALM      30.04R
$$

ALZ049-050-065>069-261400-
SOUTHEAST ALABAMA

CITY           SKY/WX    TMP DP  RH WIND       PRES   REMARKS
DOTHAN         SUNNY     70  62  76 W6        30.09R
OZARK          SUNNY     66  60  80 CALM      30.05R
TROY           SUNNY     63  60  90 CALM      30.06R
EUFAULA        FAIR      68  60  75 CALM      30.05R
$$



USA.gov is the U.S. government's official web portal to all federal, state and local government web resources and services.